SCP
0 0 0 0 0 0 0 0 0 0 -0 -0 0 0 0 0 0 0 0 -0 0 0 0 0 0 -0 -0 -0 0 0 0 0 0 0 0 0 0 0 0 0 0 0 0 0
0 0 0 0 0 0 0 0 0 0 -0 0 -0 -0 0 0 0 -0 -0 -0 0 0 0 0 0 -0 -0 -0 0 0 0 0 0 0 0 0 0 0 0 0 0 0 0 0
0 0 0 0 0 0 0 0 0 0 0 0 0 -0 -0 0 0 0 -0 -0 -0 -0 0 -0 0 0 -0 -0 -0 -0 0 0 0 0 0 0 0 0 0 0 0 0 0 0
0 0 0 0 0 0 0 0 0 0 0 0 0 0 0 -0 -0 0 0 -0 -0 -0 0 0 -0 -0 0 -0 -0 -0 0 0 0 0 0 0 0 0 0 0 0 0 0 0
0 0 0 0 0 0 0 0 0 0 0 0 0 0 0 0 0 0 -0 -0 0 0 -0 0 0 0 0 0 -0 -0 0 0 0 0 0 0 0 0 0 0 0 0 0 0
0 0 0 0 0 0 0 0 0 0 0 0 0 0 0 0 -0 0 0 0 -0 0 0 0 0 0 0 0 0 -0 0 0 0 0 0 0 0 0 0 0 0 0 0 0
0 0 0 0 0 0 0 0 0 0 0 0 0 0 0 0 0 0 -0 -0 -0 0 -0 -0 -0 0 0 -0 -0 -0 0 0 0 0 0 0 0 0 0 0 0 0 0 0
0 0 0 0 0 0 0 0 0 0 0 0 0 0 0 0 -0 -0 0 0 0 -0 -0 0 0 -0 -0 -0 -0 -0 -0 0 0 0 0 0 0 0 0 0 0 0 0 0
0 0 0 0 0 0 0 0 0 0 0 0 0 0 0 0 0 0 0 0 0 0 -0 -0 0 -0 0 -0 0 -0 -0 0 0 0 0 0 0 0 0 0 0 0 0 0
-0 0 0 0 0 0 0 0 0 0 0 0 0 0 0 0 0 0 0 0 0 0 -0 0 -0 -0 0 0 0 -0 -0 0 0 0 0 0 0 0 0 0 0 0 0 0
-0 -0 0 0 0 0 0 0 0 0 0 0 0 0 0 0 0 0 0 0 0 0 0 0 0 0 0 0 0 0 0 0 0 0 0 0 0 0 0 0 0 0 0 0
0 -0 0 0 0 0 0 0 0 0 0 0 0 0 0 0 -0 0 0 0 -0 -0 0 0 0 0 -0 -0 0 0 0 0 0 0 0 0 0 0 0 0 0 0 0 0
0 -0 -0 0 0 0 0 0 0 0 0 0 0 0 0 0 0 0 0 0 0 0 0 -0 0 0 0 0 0 0 0 0 0 0 0 0 0 0 0 0 0 0 0 0
0 0 -0 -0 0 0 0 0 0 0 0 0 0 0 0 0 0 0 -0 0 -0 -0 -0 0 0 0 0 0 0 0 0 0 0 0 0 0 0 0 0 0 0 0 0 0
0 0 -0 -0 0 0 0 0 0 0 0 0 0 0 0 0 0 0 0 -0 -0 0 0 0 0 -0 -0 0 0 0 0 0 0 0 0 0 0 0 0 0 0 0 0 0
0 -0 -0 -0 0 0 0 0 0 0 0 0 0 0 0 0 0 0 0 0 0 0 0 0 0 -0 -0 0 0 -0 0 0 0 0 0 0 0 0 0 0 0 0 0 0
0 0 -0 0 0 0 0 0 0 0 0 0 0 0 0 0 0 0 0 0 0 0 0 0 0 0 0 -0 -0 0 0 0 0 0 0 0 0 0 0 0 0 0 0 0
0 0 0 0 0 0 0 0 0 0 0 0 0 0 0 0 0 0 0 0 0 0 0 0 0 0 0 -0 -0 -0 0 0 0 -0 0 0 0 0 0 0 0 0 0 0
0 0 0 0 0 0 0 0 -0 0 0 0 0 0 0 0 0 0 0 0 0 0 0 0 0 0 0 0 0 -0 -0 0 0 0 0 0 0 0 0 0 0 0 0 0
-0 0 0 0 0 0 0 0 0 0 0 0 0 0 0 0 0 0 0 0 0 0 0 0 0 0 0 0 0 0 -0 0 0 0 0 0 0 0 0 0 0 0 0 0
0 0 0 0 0 0 0 0 0 0 0 0 0 0 0 0 0 0 0 0 0 0 0 0 0 0 0 0 -0 -0 -0 -0 0 0 0 0 0 0 -0 0 0 0 0 0
0 0 0 0 0 0 0 0 0 0 0 0 0 0 0 0 0 0 0 0 0 0 0 0 0 0 0 0 -0 -0 -0 -0 -0 0 0 0 0 0 0 -0 0 0 0 0
0 0 0 0 0 0 0 0 0 0 0 0 0 0 0 0 0 0 0 0 0 0 0 0 0 0 0 0 0 -0 -0 -0 -0 0 0 0 0 0 0 0 -0 0 0 0
0 0 0 0 0 0 0 0 0 0 0 0 0 0 0 0 0 0 0 0 0 0 0 0 0 0 0 0 0 0 -0 0 -0 -0 0 0 0 0 0 0 0 0 0 0
0 0 0 0 0 0 0 0 0 0 0 0 0 0 0 0 0 0 0 0 0 0 0 0 0 -0 -0 0 0 0 0 -0 -0 0 0 0 0 0 0 0 0 0 0 0
0 0 0 0 0 0 0 0 0 0 0 0 0 0 0 0 0 0 0 0 0 0 0 0 0 0 -0 -0 -0 -0 0 0 0 0 -0 0 0 0 0 0 0 0 0 0
0 0 0 0 0 0 0 0 0 0 0 0 0 0 0 0 0 0 0 0 0 0 0 0 0 0 0 -0 -0 -0 -0 -0 0 0 -0 -0 0 0 0 0 0 0 0 0
Wind_Speed_500mb
56 58 60 58 57 63 62 22 3 24 18 4 4 5 11 14 16 9 12 14 19 15 10 13 10 13 12 7 13 15 13 11 14 47 27 39 44 35 45 22 18 19 9 13
55 55 57 57 50 56 54 17 9 15 20 8 7 14 13 11 12 17 11 10 8 10 8 9 13 10 7 12 8 7 14 11 23 14 17 29 55 45 43 18 9 31 22 5
54 52 54 55 46 46 42 14 8 9 10 7 14 17 12 13 22 10 15 14 13 12 12 13 13 17 9 12 11 13 15 8 20 20 13 2 41 47 42 40 26 18 31 18
54 51 54 48 43 37 26 16 4 6 7 9 18 19 11 19 19 12 17 3 6 13 9 21 15 11 18 14 9 7 4 8 14 29 28 19 10 43 52 49 40 33 21 38
51 52 57 45 36 35 15 11 8 6 15 15 17 8 5 19 14 13 16 12 27 22 13 21 34 27 15 5 4 3 6 5 19 20 22 18 20 16 42 49 44 35 21 35
49 57 58 46 27 26 12 15 14 11 13 12 10 5 8 18 32 19 19 28 29 25 22 17 23 33 33 28 6 5 3 0 10 21 5 11 21 30 23 27 36 46 41 27
57 61 58 42 25 18 19 18 17 7 8 9 16 21 32 27 27 19 38 36 11 8 44 49 42 47 48 40 27 28 7 4 3 7 3 19 5 20 24 26 19 42 42 35
63 64 57 40 26 16 21 23 13 7 9 18 26 19 24 36 32 28 23 20 29 46 26 8 10 5 9 20 24 31 27 6 3 6 12 6 11 19 11 9 10 25 16 25
66 66 57 40 24 16 21 23 20 17 12 7 15 30 29 17 15 11 11 32 30 15 3 4 5 5 7 2 7 26 27 14 7 4 8 25 18 27 12 4 15 28 24 21
66 68 60 44 23 15 23 25 22 17 14 22 16 13 13 13 8 9 16 21 11 8 4 5 5 6 9 5 13 15 12 7 19 12 6 4 26 30 4 19 6 36 31 29
64 69 64 43 26 16 25 24 22 25 16 41 31 22 23 24 17 5 15 18 2 6 6 4 5 5 4 7 3 8 9 11 10 8 8 7 44 12 5 13 23 31 34 32
60 67 65 44 28 18 21 29 20 22 27 49 62 59 31 34 29 25 9 8 16 8 5 3 6 6 3 7 4 3 4 3 3 7 3 15 27 9 10 20 29 36 40 42
58 63 61 47 27 20 21 23 23 27 26 43 17 18 21 13 12 16 12 8 7 6 9 6 5 7 7 6 4 5 2 1 5 6 10 16 15 21 28 32 32 40 42 44
61 62 59 47 30 22 23 22 17 19 15 8 15 28 34 18 19 15 25 16 20 23 17 5 5 6 7 4 5 4 4 9 7 4 13 28 13 37 43 54 43 47 49 48
66 63 57 44 28 24 24 25 12 14 9 8 23 31 27 33 29 27 21 24 22 3 5 4 5 6 7 4 3 1 2 5 4 4 8 8 34 42 51 45 54 53 56 62
68 66 53 38 31 23 18 6 2 8 15 8 8 16 15 36 25 22 15 11 13 5 6 7 10 7 6 7 5 2 13 16 13 11 25 36 50 59 50 43 54 52 53 54
70 64 49 33 18 14 6 6 13 15 2 5 10 14 11 27 20 14 12 8 4 6 5 6 6 8 11 5 9 17 28 29 35 33 36 26 17 30 56 49 48 50 48 46
69 56 43 21 6 4 6 5 17 5 3 3 3 9 13 16 9 9 15 6 2 1 6 5 6 12 6 5 23 41 41 46 45 28 25 39 46 56 63 48 44 48 46 49
63 48 21 4 1 1 9 20 5 6 6 3 4 5 7 18 4 7 8 8 2 6 4 3 8 1 4 15 37 47 53 38 52 51 48 47 46 54 58 48 41 41 45 46
51 21 9 3 4 24 12 5 4 8 7 8 6 7 6 5 5 5 10 4 4 5 4 14 3 2 22 40 57 47 54 57 54 46 47 44 46 48 53 47 40 41 44 46
45 21 9 14 20 9 5 6 7 7 6 11 11 15 7 5 4 1 2 3 5 4 6 8 6 8 21 53 63 71 67 66 59 52 60 52 54 54 54 48 40 41 42 41
48 33 33 17 3 4 5 4 3 7 4 6 5 3 9 4 2 1 2 1 3 2 8 3 5 9 51 55 57 66 71 63 60 51 47 39 48 54 51 48 44 43 42 38
29 5 6 5 4 3 7 5 3 4 5 6 2 5 4 3 4 4 1 1 2 6 1 3 5 35 49 59 59 65 60 66 65 67 46 36 30 38 39 44 42 37 41 37
7 4 8 7 6 8 8 7 5 8 13 13 11 3 4 4 4 2 3 2 1 3 2 1 6 37 44 54 56 56 53 63 59 65 58 43 19 18 28 33 34 30 37 32
9 7 9 12 15 13 9 14 10 15 17 11 3 2 3 2 3 1 3 3 2 1 3 4 22 37 35 47 57 57 49 54 59 52 62 52 37 15 16 15 23 28 35 34
12 15 8 12 6 11 12 16 19 13 10 3 2 1 3 2 2 4 5 4 5 3 5 19 29 27 29 40 50 54 56 53 54 55 61 59 47 34 28 20 17 24 31 34
11 14 26 21 13 14 14 21 17 10 7 4 4 3 2 3 3 4 6 8 6 12 18 24 23 22 22 33 41 45 51 54 60 59 64 66 60 45 38 34 31 29 25 29
Wind_Direction_500mb
354 350 347 353 356 354 356 7 16 2 40 33 343 300 305 303 291 314 281 261 267 259 299 300 292 286 166 98 41 331 303 294 244 206 198 197 198 195 194 197 183 218 232 231
353 351 347 353 357 357 352 349 315 3 14 7 350 326 303 273 305 337 313 303 301 283 294 307 300 316 87 129 82 22 342 237 223 172 195 206 202 204 204 212 181 204 198 189
351 353 350 350 357 359 354 357 349 351 16 23 336 335 310 320 325 313 337 290 303 308 301 244 265 283 310 197 270 156 330 275 259 208 203 353 207 208 205 207 216 191 215 209
348 353 351 347 351 360 3 8 11 356 318 335 331 321 299 315 349 342 316 329 355 339 296 308 249 252 316 294 156 126 57 280 291 273 276 286 287 219 211 214 216 221 197 218
347 352 349 350 348 355 8 2 342 318 291 296 326 326 292 331 331 312 308 293 321 324 289 282 292 304 309 272 8 138 138 318 324 262 233 252 272 257 225 218 215 218 211 228
349 351 350 346 349 350 350 342 325 298 283 316 322 290 323 308 318 296 276 309 310 298 304 306 283 279 273 263 272 276 237 324 324 218 117 308 264 239 220 225 218 221 225 227
348 349 349 343 340 313 306 312 307 286 287 301 298 287 300 296 305 288 296 300 269 281 314 302 274 254 252 251 237 224 222 206 262 284 208 232 221 28 211 199 207 229 239 247
347 347 347 347 334 300 291 294 282 255 283 291 291 285 315 303 298 287 276 300 289 299 301 283 294 198 215 231 216 208 224 216 242 263 217 315 120 24 6 206 145 15 355 277
348 347 346 346 334 308 291 295 288 265 291 246 298 302 290 298 318 294 260 315 314 330 287 293 300 296 308 191 143 194 193 233 260 268 230 212 36 342 328 243 169 7 354 335
348 347 344 343 325 310 291 295 290 272 262 276 274 284 298 292 273 275 296 334 326 320 323 262 261 284 299 272 161 171 180 185 222 219 268 277 352 328 206 187 32 341 335 326
346 346 344 340 330 309 299 293 290 268 267 279 277 276 268 271 258 252 318 322 47 299 320 285 327 261 337 290 35 155 166 165 192 201 222 224 360 11 60 358 329 335 333 319
342 344 344 337 332 305 283 285 294 285 265 268 290 297 299 279 268 265 239 264 310 286 319 312 305 308 286 295 208 328 153 275 169 229 52 347 346 310 356 340 335 338 329 326
339 342 341 334 323 323 279 288 285 287 284 301 299 308 308 308 239 236 236 232 245 271 333 317 305 337 327 337 45 303 274 71 272 245 48 337 331 31 360 346 336 337 335 329
340 338 338 332 315 310 309 292 279 265 271 288 283 329 331 319 322 288 241 258 280 286 310 280 276 270 197 305 310 333 288 317 319 294 7 334 252 338 341 337 336 337 339 341
341 336 335 326 311 302 310 309 272 255 271 292 295 320 351 347 331 295 277 263 263 295 292 275 291 288 296 276 209 21 320 333 347 336 322 244 285 304 324 327 330 333 336 339
339 335 333 323 307 295 315 299 172 335 249 301 303 313 316 7 7 16 36 202 229 202 203 273 292 283 288 313 311 114 342 326 339 283 289 275 277 292 304 312 321 324 330 336
338 334 333 326 304 276 267 284 306 331 278 265 295 305 321 359 11 30 25 77 165 203 235 221 281 306 336 281 288 337 330 327 316 301 300 291 295 293 304 313 316 317 323 333
337 331 333 329 311 250 236 287 308 269 184 203 277 283 314 351 342 352 351 344 177 20 322 323 331 307 295 285 317 313 316 316 308 299 285 287 293 291 293 301 313 314 322 332
339 330 331 314 140 18 282 303 262 199 230 234 212 280 302 345 350 347 336 342 315 344 6 316 318 290 337 278 291 294 296 291 294 298 289 286 285 283 286 292 301 304 310 324
343 340 336 231 266 314 300 200 207 216 224 219 247 217 273 309 315 37 349 17 14 360 26 312 287 302 311 329 321 318 325 323 306 285 284 280 278 277 280 283 291 293 298 311
352 335 278 266 298 285 226 225 207 179 229 212 231 214 277 250 289 11 59 332 347 10 15 344 333 319 334 338 343 340 335 335 336 318 288 279 269 270 273 280 280 283 288 300
324 303 294 307 296 202 234 230 215 215 277 216 225 224 227 247 184 223 194 241 221 158 327 278 346 308 333 338 339 350 348 345 349 344 328 291 277 260 264 271 277 279 281 292
322 311 292 277 242 249 218 220 217 255 211 241 261 331 187 192 187 217 215 166 222 336 50 11 278 323 334 340 343 348 349 355 355 354 354 326 289 251 250 265 272 278 283 291
285 242 277 213 220 235 200 192 203 235 244 280 297 251 226 174 193 195 248 96 173 88 41 8 278 332 338 340 344 350 347 354 349 353 356 4 330 270 255 261 270 277 280 292
243 205 236 231 239 261 248 225 253 259 281 280 268 166 233 163 192 189 258 207 92 230 219 237 313 331 342 343 345 345 344 348 353 353 0 4 12 338 295 293 280 282 282 284
223 232 248 230 253 256 228 226 248 274 254 211 124 161 241 222 209 193 183 176 230 235 219 287 317 329 347 354 359 358 358 0 357 4 8 10 9 5 2 344 309 290 291 284
226 238 229 238 266 257 263 236 244 242 205 217 162 246 270 123 248 223 192 213 220 249 295 317 326 332 350 359 2 8 11 8 11 12 11 18 23 19 9 359 339 323 327 289
Wind_Speed_850mb
56 58 60 58 57 63 62 22 3 24 18 4 4 5 11 14 16 9 12 14 19 15 10 13 10 13 12 7 13 15 13 11 14 47 27 39 44 35 45 22 18 19 9 13
55 55 57 57 50 56 54 17 9 15 20 8 7 14 13 11 12 17 11 10 8 10 8 9 13 10 7 12 8 7 14 11 23 14 17 29 55 45 43 18 9 31 22 5
54 52 54 55 46 46 42 14 8 9 10 7 14 17 12 13 22 10 15 14 13 12 12 13 13 17 9 12 11 13 15 8 20 20 13 2 41 47 42 40 26 18 31 18
54 51 54 48 43 37 26 16 4 6 7 9 18 19 11 19 19 12 17 3 6 13 9 21 15 11 18 14 9 7 4 8 14 29 28 19 10 43 52 49 40 33 21 38
51 52 57 45 36 35 15 11 8 6 15 15 17 8 5 19 14 13 16 12 27 22 13 21 34 27 15 5 4 3 6 5 19 20 22 18 20 16 42 49 44 35 21 35
49 57 58 46 27 26 12 15 14 11 13 12 10 5 8 18 32 19 19 28 29 25 22 17 23 33 33 28 6 5 3 0 10 21 5 11 21 30 23 27 36 46 41 27
57 61 58 42 25 18 19 18 17 7 8 9 16 21 32 27 27 19 38 36 11 8 44 49 42 47 48 40 27 28 7 4 3 7 3 19 5 20 24 26 19 42 42 35
63 64 57 40 26 16 21 23 13 7 9 18 26 19 24 36 32 28 23 20 29 46 26 8 10 5 9 20 24 31 27 6 3 6 12 6 11 19 11 9 10 25 16 25
66 66 57 40 24 16 21 23 20 17 12 7 15 30 29 17 15 11 11 32 30 15 3 4 5 5 7 2 7 26 27 14 7 4 8 25 18 27 12 4 15 28 24 21
66 68 60 44 23 15 23 25 22 17 14 22 16 13 13 13 8 9 16 21 11 8 4 5 5 6 9 5 13 15 12 7 19 12 6 4 26 30 4 19 6 36 31 29
64 69 64 43 26 16 25 24 22 25 16 41 31 22 23 24 17 5 15 18 2 6 6 4 5 5 4 7 3 8 9 11 10 8 8 7 44 12 5 13 23 31 34 32
60 67 65 44 28 18 21 29 20 22 27 49 62 59 31 34 29 25 9 8 16 8 5 3 6 6 3 7 4 3 4 3 3 7 3 15 27 9 10 20 29 36 40 42
58 63 61 47 27 20 21 23 23 27 26 43 17 18 21 13 12 16 12 8 7 6 9 6 5 7 7 6 4 5 2 1 5 6 10 16 15 21 28 32 32 40 42 44
61 62 59 47 30 22 23 22 17 19 15 8 15 28 34 18 19 15 25 16 20 23 17 5 5 6 7 4 5 4 4 9 7 4 13 28 13 37 43 54 43 47 49 48
66 63 57 44 28 24 24 25 12 14 9 8 23 31 27 33 29 27 21 24 22 3 5 4 5 6 7 4 3 1 2 5 4 4 8 8 34 42 51 45 54 53 56 62
68 66 53 38 31 23 18 6 2 8 15 8 8 16 15 36 25 22 15 11 13 5 6 7 10 7 6 7 5 2 13 16 13 11 25 36 50 59 50 43 54 52 53 54
70 64 49 33 18 14 6 6 13 15 2 5 10 14 11 27 20 14 12 8 4 6 5 6 6 8 11 5 9 17 28 29 35 33 36 26 17 30 56 49 48 50 48 46
69 56 43 21 6 4 6 5 17 5 3 3 3 9 13 16 9 9 15 6 2 1 6 5 6 12 6 5 23 41 41 46 45 28 25 39 46 56 63 48 44 48 46 49
63 48 21 4 1 1 9 20 5 6 6 3 4 5 7 18 4 7 8 8 2 6 4 3 8 1 4 15 37 47 53 38 52 51 48 47 46 54 58 48 41 41 45 46
51 21 9 3 4 24 12 5 4 8 7 8 6 7 6 5 5 5 10 4 4 5 4 14 3 2 22 40 57 47 54 57 54 46 47 44 46 48 53 47 40 41 44 46
45 21 9 14 20 9 5 6 7 7 6 11 11 15 7 5 4 1 2 3 5 4 6 8 6 8 21 53 63 71 67 66 59 52 60 52 54 54 54 48 40 41 42 41
48 33 33 17 3 4 5 4 3 7 4 6 5 3 9 4 2 1 2 1 3 2 8 3 5 9 51 55 57 66 71 63 60 51 47 39 48 54 51 48 44 43 42 38
29 5 6 5 4 3 7 5 3 4 5 6 2 5 4 3 4 4 1 1 2 6 1 3 5 35 49 59 59 65 60 66 65 67 46 36 30 38 39 44 42 37 41 37
7 4 8 7 6 8 8 7 5 8 13 13 11 3 4 4 4 2 3 2 1 3 2 1 6 37 44 54 56 56 53 63 59 65 58 43 19 18 28 33 34 30 37 32
9 7 9 12 15 13 9 14 10 15 17 11 3 2 3 2 3 1 3 3 2 1 3 4 22 37 35 47 57 57 49 54 59 52 62 52 37 15 16 15 23 28 35 34
12 15 8 12 6 11 12 16 19 13 10 3 2 1 3 2 2 4 5 4 5 3 5 19 29 27 29 40 50 54 56 53 54 55 61 59 47 34 28 20 17 24 31 34
11 14 26 21 13 14 14 21 17 10 7 4 4 3 2 3 3 4 6 8 6 12 18 24 23 22 22 33 41 45 51 54 60 59 64 66 60 45 38 34 31 29 25 29
Wind_Direction_850mb
354 350 347 353 356 354 356 7 16 2 40 33 343 300 305 303 291 314 281 261 267 259 299 300 292 286 166 98 41 331 303 294 244 206 198 197 198 195 194 197 183 218 232 231
353 351 347 353 357 357 352 349 315 3 14 7 350 326 303 273 305 337 313 303 301 283 294 307 300 316 87 129 82 22 342 237 223 172 195 206 202 204 204 212 181 204 198 189
351 353 350 350 357 359 354 357 349 351 16 23 336 335 310 320 325 313 337 290 303 308 301 244 265 283 310 197 270 156 330 275 259 208 203 353 207 208 205 207 216 191 215 209
348 353 351 347 351 360 3 8 11 356 318 335 331 321 299 315 349 342 316 329 355 339 296 308 249 252 316 294 156 126 57 280 291 273 276 286 287 219 211 214 216 221 197 218
347 352 349 350 348 355 8 2 342 318 291 296 326 326 292 331 331 312 308 293 321 324 289 282 292 304 309 272 8 138 138 318 324 262 233 252 272 257 225 218 215 218 211 228
349 351 350 346 349 350 350 342 325 298 283 316 322 290 323 308 318 296 276 309 310 298 304 306 283 279 273 263 272 276 237 324 324 218 117 308 264 239 220 225 218 221 225 227
348 349 349 343 340 313 306 312 307 286 287 301 298 287 300 296 305 288 296 300 269 281 314 302 274 254 252 251 237 224 222 206 262 284 208 232 221 28 211 199 207 229 239 247
347 347 347 347 334 300 291 294 282 255 283 291 291 285 315 303 298 287 276 300 289 299 301 283 294 198 215 231 216 208 224 216 242 263 217 315 120 24 6 206 145 15 355 277
348 347 346 346 334 308 291 295 288 265 291 246 298 302 290 298 318 294 260 315 314 330 287 293 300 296 308 191 143 194 193 233 260 268 230 212 36 342 328 243 169 7 354 335
348 347 344 343 325 310 291 295 290 272 262 276 274 284 298 292 273 275 296 334 326 320 323 262 261 284 299 272 161 171 180 185 222 219 268 277 352 328 206 187 32 341 335 326
346 346 344 340 330 309 299 293 290 268 267 279 277 276 268 271 258 252 318 322 47 299 320 285 327 261 337 290 35 155 166 165 192 201 222 224 360 11 60 358 329 335 333 319
342 344 344 337 332 305 283 285 294 285 265 268 290 297 299 279 268 265 239 264 310 286 319 312 305 308 286 295 208 328 153 275 169 229 52 347 346 310 356 340 335 338 329 326
339 342 341 334 323 323 279 288 285 287 284 301 299 308 308 308 239 236 236 232 245 271 333 317 305 337 327 337 45 303 274 71 272 245 48 337 331 31 360 346 336 337 335 329
340 338 338 332 315 310 309 292 279 265 271 288 283 329 331 319 322 288 241 258 280 286 310 280 276 270 197 305 310 333 288 317 319 294 7 334 252 338 341 337 336 337 339 341
341 336 335 326 311 302 310 309 272 255 271 292 295 320 351 347 331 295 277 263 263 295 292 275 291 288 296 276 209 21 320 333 347 336 322 244 285 304 324 327 330 333 336 339
339 335 333 323 307 295 315 299 172 335 249 301 303 313 316 7 7 16 36 202 229 202 203 273 292 283 288 313 311 114 342 326 339 283 289 275 277 292 304 312 321 324 330 336
338 334 333 326 304 276 267 284 306 331 278 265 295 305 321 359 11 30 25 77 165 203 235 221 281 306 336 281 288 337 330 327 316 301 300 291 295 293 304 313 316 317 323 333
337 331 333 329 311 250 236 287 308 269 184 203 277 283 314 351 342 352 351 344 177 20 322 323 331 307 295 285 317 313 316 316 308 299 285 287 293 291 293 301 313 314 322 332
339 330 331 314 140 18 282 303 262 199 230 234 212 280 302 345 350 347 336 342 315 344 6 316 318 290 337 278 291 294 296 291 294 298 289 286 285 283 286 292 301 304 310 324
343 340 336 231 266 314 300 200 207 216 224 219 247 217 273 309 315 37 349 17 14 360 26 312 287 302 311 329 321 318 325 323 306 285 284 280 278 277 280 283 291 293 298 311
352 335 278 266 298 285 226 225 207 179 229 212 231 214 277 250 289 11 59 332 347 10 15 344 333 319 334 338 343 340 335 335 336 318 288 279 269 270 273 280 280 283 288 300
324 303 294 307 296 202 234 230 215 215 277 216 225 224 227 247 184 223 194 241 221 158 327 278 346 308 333 338 339 350 348 345 349 344 328 291 277 260 264 271 277 279 281 292
322 311 292 277 242 249 218 220 217 255 211 241 261 331 187 192 187 217 215 166 222 336 50 11 278 323 334 340 343 348 349 355 355 354 354 326 289 251 250 265 272 278 283 291
285 242 277 213 220 235 200 192 203 235 244 280 297 251 226 174 193 195 248 96 173 88 41 8 278 332 338 340 344 350 347 354 349 353 356 4 330 270 255 261 270 277 280 292
243 205 236 231 239 261 248 225 253 259 281 280 268 166 233 163 192 189 258 207 92 230 219 237 313 331 342 343 345 345 344 348 353 353 0 4 12 338 295 293 280 282 282 284
223 232 248 230 253 256 228 226 248 274 254 211 124 161 241 222 209 193 183 176 230 235 219 287 317 329 347 354 359 358 358 0 357 4 8 10 9 5 2 344 309 290 291 284
226 238 229 238 266 257 263 236 244 242 205 217 162 246 270 123 248 223 192 213 220 249 295 317 326 332 350 359 2 8 11 8 11 12 11 18 23 19 9 359 339 323 327 289